EPWAEPKK

Guest
Details From EPWA - WARSZAWA Okecie
To EPKK - BALICE
Flight Number -
Tags generated
Created
Modified
Stats Distance 133 nm / 246 km
Max Altitude 8,500 ft / 2,591 m
Waypoints 3
Social Downloads 2
Likes 0
Share VATSIM

Download

Looking for another format? Having issues loading an existing format? Contact us
Advertisement - Login to hide

Notes

Basic altitude profile: - Ascent Rate: 1800ft/min - Ascent Speed: 230kts - Cruise Altitude: 16000ft - Cruise Speed: 250kts - Descent Rate: 300ft/min - Descent Speed: 200kts Options: - Use NATs: yes - Use PACOTS: yes - Use low airways: yes - Use high airways: yes

Route

EPWA BADEX EPKK

ID Type Via Altitude Latitude Longitude Leg Dist Tot Dist Heading (true) Name
O EPWA APT - 0 ft / 0 m 52.16509˚ 20.96692˚ - 0 nm - WARSZAWA Okecie
BADEX FIX - 8,500 ft / 2,591 m 50.71083˚ 20.10944˚ 93 nm 93 nm 201° / 200° -
O EPKK APT - 0 ft / 0 m 50.07782˚ 19.78550˚ 39 nm 133 nm 198° / 198° BALICE

Altitude Profile

Advertisement - Login to hide

EPWA

Details ICAO EPWA (WAW)
Name WARSZAWA Okecie
Region Poland
Timezone Europe/Warsaw (UTC+1.0)
Stats Elevation 328 ft / 100 m (AMSL)
Location 52.165091° 20.966923°
Runways 2
Magnetic Variation 5.801° E

METAR

EPWA 131500Z 17004KT CAVOK 01/M03 Q1013 NOSIG

Decode

TAF

TAF EPWA 131130Z 1312/1412 28010KT 9999 BKN025 BECMG 1316/1319 17013KT BECMG 1406/1408 17015G25KT BKN014 TEMPO 1406/1410 2000 SN SNRA BKN005 TEMPO 1410/1412 4000 RA RASN BR BKN009

Decode

Departure Runways

ID Width Length Bearing (true) Bearing (mag) Surface Threshold Offset Overrun Length
11 164 ft / 50 m 9,163 ft / 2,793 m 114.64° 108.84° Asphalt 0 ft / 0 m 476 ft / 145 m
15 197 ft / 60 m 12,112 ft / 3,692 m 151.85° 146.05° Asphalt 0 ft / 0 m 0 ft / 0 m
29 164 ft / 50 m 9,163 ft / 2,793 m 294.67° 288.87° Asphalt 1,608 ft / 490 m 0 ft / 0 m
33 197 ft / 60 m 12,112 ft / 3,692 m 331.87° 326.07° Asphalt 0 ft / 0 m 0 ft / 0 m

EPKK

Details ICAO EPKK (KRK)
Name BALICE
Region Poland
Timezone Europe/Warsaw (UTC+1.0)
Stats Elevation 791 ft / 241 m (AMSL)
Location 50.077821° 19.785503°
Runways 1
Magnetic Variation 5.201° E

METAR

EPKK 131500Z VRB02KT 9999 BKN050 02/M04 Q1014

Decode

TAF

TAF EPKK 131130Z 1312/1412 VRB02KT CAVOK PROB30 TEMPO 1321/1406 3000 BR BECMG 1406/1409 24012KT PROB30 TEMPO 1409/1412 25015G25KT BKN020CB

Decode

Destination Runways

ID Width Length Bearing (true) Bearing (mag) Surface Threshold Offset Overrun Length
07 197 ft / 60 m 8,343 ft / 2,543 m 77.75° 72.55° Concrete 0 ft / 0 m 0 ft / 0 m
25 197 ft / 60 m 8,343 ft / 2,543 m 257.77° 252.57° Concrete 784 ft / 239 m 0 ft / 0 m

Approach Navaids

Runway Type Ident Frequency Range Bearing (true) Bearing (mag) Slope Elevation
25 Localiser KRW 110.30 MHz 18 nm / 33 km 257.73° 252.53° - 791 ft / 241 m (AMSL)
25 Glidescope KRW 110.30 MHz 10 nm / 19 km 257.76° 252.56° 3.00° 791 ft / 241 m (AMSL)
25 DME KRW 110.30 MHz 18 nm / 33 km - - - 827 ft / 252 m (AMSL)

Popular Alternatives